Location: Forst
(46.9333°N, 15.4333°E)
Time: 06:16:48
(UTC+00:00)

H-2A R/B - Pass Details

Date: 01 December 2020
Orbit: 529 x 652 km, 98.3° (Epoch: 18 January)

Event Time Altitude Azimuth Distance (km) Brightness Sun altitude
Rises 16:06:03 0° 169° (S) 2,866 6.1 -9.1°
Reaches altitude 10° 16:08:16 10° 172° (S) 1,947 5.3 -9.5°
Maximum altitude 16:12:29 73° 257° (WSW) 621 2.8 -10.2°
Drops below altitude 10° 16:16:34 10° 342° (NNW) 1,888 5.0 -10.8°
Sets 16:18:41 0° 345° (NNW) 2,771 5.9 -11.2°
